Weather History for Fayetteville, NC

Change the Weather History Date:

Thursday, April 11, 2013

  Actual Average Record
Temperature  
Mean Temperature 73 °F 62 °F  
Max Temperature 85 °F 74 °F 90 °F (2001)
Min Temperature 60 °F 49 °F 31 °F (1960)
Degree Days  
Heating Degree Days 0 5  
Month to date heating degree days 74 69  
Since 1 July heating degree days 2676 2638  
Cooling Degree Days 8 2  
Month to date cooling degree days 23 16  
Year to date cooling degree days 31 32  
Growing Degree Days 22 (Base 50)    
Moisture  
Dew Point 61 °F    
Average Humidity 70    
Maximum Humidity 100    
Minimum Humidity 39    
Precipitation  
Precipitation T in 0.11 in 1.30 in (1941)
Month to date precipitation 1.15 1.23  
Year to date precipitation 8.46 10.84  
Sea Level Pressure  
Sea Level Pressure 29.93 in    
Wind  
Wind Speed 11 mph (SSW)    
Max Wind Speed 21 mph    
Max Gust Speed 26 mph    
Visibility 9 miles    
Events      
T = Trace of Precipitation, MM = Missing Value Source: NWS Daily Summary

Daily Weather History Graph

Daily Weather History Graph

Search for Another Location

Airport:

Trip Planner

Search our weather history database for the weather conditions in past years. The results will help you decide how hot, cold, wet, or windy it might be!

Date:

Astronomy

Apr. 11, 2013 Rise Set
Actual Time 6:48 AM EDT 7:45 PM EDT
Civil Twilight 6:22 AM EDT 8:10 PM EDT
Nautical Twilight 5:52 AM EDT 8:41 PM EDT
Astronomical Twilight 5:20 AM EDT 9:13 PM EDT
Moon 7:22 AM EDT (4/11) 9:13 PM EDT (4/11)
Length of Visible Light 13h 48m
Length of Day
12h 56m
New Moon, 2% of the Moon is Illuminated
Apr 11
New Moon
Apr 18
First Quarter
Apr 25
Full
May 2
Last Quarter
May 9
New

Hourly Weather History & Observations

Time (EDT) Temp. Heat Index Dew Point Humidity Pressure Visibility Wind Dir Wind Speed Gust Speed Precip Events Conditions
12:53 AM 64.9 °F - 57.9 °F 78% 29.98 in 10.0 mi SSW 6.9 mph - N/A   Clear
1:53 AM 62.1 °F - 59.0 °F 90% 29.99 in 10.0 mi SSW 8.1 mph - N/A   Clear
2:53 AM 62.1 °F - 59.0 °F 90% 29.97 in 10.0 mi SSW 6.9 mph - N/A   Clear
3:53 AM 61.0 °F - 59.0 °F 93% 29.96 in 10.0 mi SW 5.8 mph - N/A   Clear
4:53 AM 60.1 °F - 59.0 °F 96% 29.97 in 10.0 mi SSW 5.8 mph - N/A   Clear
5:33 AM 60.8 °F - 59.0 °F 94% 29.98 in 9.0 mi South 4.6 mph - N/A   Partly Cloudy
5:53 AM 61.0 °F - 60.1 °F 97% 29.97 in 7.0 mi SSW 5.8 mph - N/A   Mostly Cloudy
6:10 AM 60.8 °F - 60.8 °F 100% 29.98 in 1.8 mi SSW 8.1 mph - N/A   Overcast
6:23 AM 62.6 °F - 60.8 °F 94% 29.99 in 2.5 mi SSW 5.8 mph - N/A   Overcast
6:34 AM 62.6 °F - 60.8 °F 94% 29.99 in 3.0 mi SSW 5.8 mph - N/A   Overcast
6:53 AM 62.1 °F - 61.0 °F 96% 29.98 in 4.0 mi South 8.1 mph - N/A   Overcast
7:53 AM 64.0 °F - 62.1 °F 93% 30.00 in 6.0 mi SSW 8.1 mph - N/A   Overcast
8:03 AM 64.4 °F - 62.6 °F 94% 30.02 in 6.0 mi SW 10.4 mph - N/A   Overcast
8:53 AM 68.0 °F - 64.0 °F 87% 30.00 in 10.0 mi SW 9.2 mph - N/A   Mostly Cloudy
9:02 AM 69.8 °F - 62.6 °F 78% 30.02 in 10.0 mi SW 11.5 mph - N/A   Partly Cloudy
9:53 AM 73.0 °F - 63.0 °F 71% 29.99 in 10.0 mi SSW 13.8 mph 20.7 mph N/A   Scattered Clouds
10:39 AM 75.2 °F - 62.6 °F 65% 30.00 in 10.0 mi WSW 15.0 mph 20.7 mph N/A   Mostly Cloudy
10:46 AM 73.4 °F - 60.8 °F 65% 30.00 in 10.0 mi SW 17.3 mph 24.2 mph N/A   Mostly Cloudy
10:53 AM 73.9 °F - 61.0 °F 64% 29.99 in 10.0 mi SW 15.0 mph - N/A   Mostly Cloudy
11:53 AM 79.0 °F - 60.1 °F 52% 29.97 in 10.0 mi SW 13.8 mph - N/A   Partly Cloudy
1:53 PM 82.0 °F 82.0 °F 57.9 °F 44% 29.92 in 10.0 mi SW 16.1 mph 25.3 mph N/A   Mostly Cloudy
2:53 PM 82.9 °F 82.4 °F 57.0 °F 41% 29.89 in 10.0 mi SSW 15.0 mph 20.7 mph N/A   Scattered Clouds
3:53 PM 82.9 °F 82.4 °F 57.0 °F 41% 29.86 in 10.0 mi SSW 11.5 mph 19.6 mph N/A   Partly Cloudy
4:53 PM 84.0 °F 83.5 °F 57.9 °F 41% 29.82 in 10.0 mi SSW 10.4 mph 18.4 mph N/A   Clear
5:53 PM 82.9 °F 82.6 °F 57.9 °F 42% 29.81 in 10.0 mi SSW 12.7 mph - N/A   Clear
6:53 PM 80.1 °F 81.7 °F 64.0 °F 58% 29.81 in 10.0 mi SSE 15.0 mph 23.0 mph N/A   Partly Cloudy
7:53 PM 77.0 °F - 66.0 °F 69% 29.81 in 10.0 mi SSE 16.1 mph - N/A   Mostly Cloudy
8:53 PM 73.9 °F - 66.9 °F 79% 29.82 in 10.0 mi South 10.4 mph - 0.00 in   Overcast
9:53 PM 73.0 °F - 66.0 °F 79% 29.83 in 10.0 mi SSE 10.4 mph - N/A   Partly Cloudy
10:40 PM 71.6 °F - 66.2 °F 83% 29.84 in 10.0 mi South 15.0 mph 21.9 mph N/A   Overcast
10:53 PM 72.0 °F - 66.0 °F 81% 29.82 in 10.0 mi South 12.7 mph 20.7 mph N/A   Overcast
11:53 PM 72.0 °F - 66.0 °F 81% 29.83 in 10.0 mi South 13.8 mph 23.0 mph N/A   Overcast